Regional Weather Roundup
Issued by NWS

Home | Current Version | Previous Version | Text Only | Print | Product List | Glossary On
Versions: 1 2 3 4 5 6 7 8 9 10 11 12 13 14 15 16 17 18 19 20 21 22 23 24 25 26 27 28 29 30 31 32 33 34 35 36 37 38 39 40 41 42 43 44 45 46 47 48 49 50
000
ASUS43 KBIS 271302
RWRND

NORTH DAKOTA REGIONAL WEATHER ROUNDUP
NATIONAL WEATHER SERVICE BISMARCK ND
800 AM CDT WED MAY 27 2015

NOTE: "FAIR" INDICATES FEW OR NO CLOUDS BELOW 12,000 FEET WITH NO
SIGNIFICANT WEATHER AND/OR OBSTRUCTIONS TO VISIBILITY.


NDZ001>003-009>011-017-271400-
NORTHWEST NORTH DAKOTA

CITY           SKY/WX    TMP DP  RH WIND       PRES   REMARKS
WILLISTON      SUNNY     59  47  64 CALM      29.93S
MINOT          MOSUNNY   59  48  67 E5        29.95R
MINOT AFB      MOSUNNY   62  56  83 CALM      29.94R
$$

NDZ018>021-031>035-040>046-271400-
SOUTHWEST NORTH DAKOTA

CITY           SKY/WX    TMP DP  RH WIND       PRES   REMARKS
BISMARCK       SUNNY     59  50  72 W3        29.96S
DICKINSON      MOSUNNY   57  47  69 SE5       29.95R
GARRISON         N/A     60  52  74 CALM      29.94S
HETTINGER ARPT MOSUNNY   56  47  71 CALM      29.98S
$$

NDZ004>008-012>016-024-026-027-054-271400-
NORTHEAST NORTH DAKOTA

CITY           SKY/WX    TMP DP  RH WIND       PRES   REMARKS
GRAND FORKS    PTSUNNY   56  45  66 N14       29.92R
GRND FRKS AFB  MOSUNNY   56  45  66 N14       29.93R
DEVILS LAKE    SUNNY     57  48  72 NE9       29.94S
$$

NDZ022-023-025-028>030-036>039-047>053-271400-
SOUTHEAST NORTH DAKOTA

CITY           SKY/WX    TMP DP  RH WIND       PRES   REMARKS
FARGO          SUNNY     61  51  70 NW7       29.90R
JAMESTOWN      SUNNY     62  51  67 N6        29.95R
$$



USA.gov is the U.S. government's official web portal to all federal, state and local government web resources and services.